1521262801.23,13953,8.19,71918.3,-8.67,-9.53,-9.49,0,*5F
1521262802.5,13954,8.19,71908.5,-8.65,-9.53,-9.53,0,*51
1521262803.77,13955,8.19,71914.8,-8.65,-9.53,-9.53,0,*50
1521262805.04,13956,8.19,71916.5,-8.65,-9.53,-9.53,0,*53
1521262806.31,13957,8.19,71912.0,-8.65,-9.53,-9.49,0,*59
1521262807.58,13958,8.19,71904.8,-8.65,-9.61,-9.49,0,*57
1521262808.85,13959,8.19,71898.0,-8.65,-9.53,-9.49,0,*57
1521262810.09,13960,8.19,71888.5,-8.63,-9.57,-9.45,0,*53
1521262811.36,13961,8.13,71898.0,-8.65,-9.53,-9.49,0,*5C
1521262812.63,13962,8.19,71896.5,-8.65,-9.53,-9.49,0,*5F
1521262813.9,13963,8.19,71892.8,-8.65,-9.53,-9.49,0,*5E
1521262815.15,13964,8.19,71918.8,-8.63,-9.45,-9.45,0,*54
1521262816.43,13965,8.19,71916.5,-8.65,-9.49,-9.53,0,*58
1521262817.7,13966,8.19,71914.3,-8.65,-9.49,-9.53,0,*5B
1521262818.95,13967,8.19,71914.0,-8.63,-9.45,-9.49,0,*5B
1521262820.19,13968,8.19,71916.5,-8.63,-9.45,-9.49,0,*54
1521262821.47,13969,8.19,71916.3,-8.65,-9.49,-9.49,0,*5F
1521262822.71,13970,8.19,71916.8,-8.63,-9.45,-9.49,0,*5D
1521262823.96,13971,8.19,71918.3,-8.63,-9.49,-9.49,0,*50
1521262825.2,13972,8.19,71908.3,-8.63,-9.49,-9.41,0,*5B
1521262826.47,13973,8.19,71914.8,-8.65,-9.53,-9.49,0,*5F
1521262827.75,13974,8.19,71906.8,-8.65,-9.53,-9.45,0,*54
1521262829.01,13975,8.19,71908.5,-8.65,-9.53,-9.49,0,*59
1521262830.26,13976,8.19,71910.3,-8.63,-9.49,-9.45,0,*5B
1521262831.51,13977,8.19,71904.8,-8.63,-9.49,-9.45,0,*5A
1521262832.75,13978,8.19,71916.3,-8.63,-9.57,-9.45,0,*5A
1521262834.02,13979,8.19,71922.3,-8.65,-9.53,-9.49,0,*55
1521262835.27,13980,8.19,71920.0,-8.63,-9.49,-9.45,0,*52
1521262836.51,13981,8.19,71918.5,-8.63,-9.53,-9.49,0,*54
1521262837.76,13982,8.19,71906.0,-8.63,-9.49,-9.45,0,*50
1521262839.0,13983,8.19,71910.3,-8.63,-9.49,-9.45,0,*51
1521262840.27,13984,8.19,71904.0,-8.65,-9.53,-9.49,0,*57
1521262841.52,13985,8.19,71896.5,-8.63,-9.49,-9.45,0,*57
1521262842.79,13986,8.19,71894.8,-8.65,-9.53,-9.49,0,*55
1521262844.04,13987,8.19,71900.8,-8.63,-9.49,-9.45,0,*55
1521262845.31,13988,8.19,71900.8,-8.65,-9.53,-9.49,0,*5B
1521262846.55,13989,8.19,71900.0,-8.63,-9.49,-9.45,0,*5B
1521262847.8,13990,8.19,71910.0,-8.63,-9.49,-9.45,0,*53
1521262849.05,13991,8.19,71904.5,-8.63,-9.49,-9.49,0,*5E
1521262850.29,13992,8.19,71912.0,-8.63,-9.49,-9.49,0,*5D
1521262851.57,13993,8.19,71904.3,-8.61,-9.49,-9.45,0,*52
1521262852.84,13994,8.19,71904.8,-8.61,-9.49,-9.45,0,*55
1521262854.09,13995,8.13,71906.3,-8.63,-9.45,-9.45,0,*5A
1521262855.34,13996,8.19,71912.5,-8.63,-9.45,-9.45,0,*59
1521262856.59,13997,8.19,71916.0,-8.63,-9.49,-9.45,0,*54
1521262857.87,13998,8.19,71912.8,-8.61,-9.49,-9.45,0,*59
1521262859.14,13999,8.19,71920.3,-8.61,-9.49,-9.45,0,*58
1521262860.41,14000,8.19,71926.0,-8.61,-9.57,-9.49,0,*55
1521262861.69,14001,8.19,71924.3,-8.61,-9.49,-9.49,0,*5B
1521262862.96,14002,8.19,71918.3,-8.61,-9.49,-9.49,0,*58
1521262864.24,14003,8.13,71910.3,-8.61,-9.49,-9.49,0,*59
1521262865.51,14004,8.19,71898.3,-8.61,-9.49,-9.45,0,*52
1521262866.79,14005,8.19,71886.5,-8.61,-9.49,-9.45,0,*53
1521262868.07,14006,8.19,71884.3,-8.61,-9.49,-9.45,0,*50
1521262869.34,14007,8.19,71902.5,-8.61,-9.49,-9.45,0,*51
1521262870.62,14008,8.13,71886.8,-8.61,-9.49,-9.45,0,*5E
1521262871.89,14009,8.19,71902.5,-8.61,-9.49,-9.45,0,*5F
1521262873.14,14010,8.19,71912.3,-8.59,-9.45,-9.41,0,*54
1521262874.41,14011,8.19,71900.5,-8.61,-9.49,-9.45,0,*56
1521262875.69,14012,8.19,71900.0,-8.61,-9.49,-9.41,0,*51
1521262876.93,14013,8.19,71890.5,-8.59,-9.49,-9.45,0,*5F
1521262878.21,14014,8.19,71894.8,-8.61,-9.49,-9.45,0,*53
1521262879.45,14015,8.19,71906.0,-8.59,-9.45,-9.41,0,*51
1521262880.73,14016,8.19,71904.0,-8.61,-9.49,-9.45,0,*51
1521262881.97,14017,8.13,71904.5,-8.59,-9.45,-9.45,0,*57
1521262883.22,14018,8.19,71914.3,-8.59,-9.45,-9.41,0,*5C
1521262884.49,14019,8.19,71910.8,-8.61,-9.49,-9.45,0,*5E
1521262885.77,14020,8.19,71910.8,-8.61,-9.49,-9.45,0,*54
1521262887.01,14021,8.19,71910.8,-8.59,-9.45,-9.45,0,*52
1521262888.29,14022,8.13,71904.0,-8.61,-9.49,-9.49,0,*5A
1521262889.56,14023,8.19,71906.5,-8.61,-9.49,-9.49,0,*5B
1521262890.81,14024,8.19,71906.3,-8.59,-9.45,-9.45,0,*57
1521262892.06,14025,8.19,71910.3,-8.59,-9.45,-9.53,0,*51
1521262893.3,14026,8.13,71904.0,-8.59,-9.49,-9.45,0,*59
1521262894.57,14027,8.19,71904.8,-8.61,-9.49,-9.49,0,*5F
1521262895.82,14028,8.19,71908.3,-8.59,-9.45,-9.45,0,*5B
1521262897.06,14029,8.19,71912.8,-8.59,-9.45,-9.45,0,*5A
1521262898.31,14030,8.19,71906.3,-8.59,-9.45,-9.45,0,*52
1521262899.55,14031,8.19,71902.5,-8.59,-9.45,-9.45,0,*53
1521262900.8,14032,8.13,71900.5,-8.59,-9.45,-9.45,0,*50
1521262902.04,14033,8.19,71902.5,-8.59,-9.45,-9.45,0,*51
1521262903.28,14034,8.19,71894.0,-8.59,-9.53,-9.45,0,*51
1521262904.53,14035,8.19,71896.0,-8.59,-9.45,-9.45,0,*57
1521262905.8,14036,8.19,71892.5,-8.61,-9.49,-9.49,0,*5F
1521262907.05,14037,8.19,71900.5,-8.59,-9.45,-9.45,0,*55
1521262908.3,14038,8.19,71898.8,-8.59,-9.45,-9.45,0,*5A
1521262909.54,14039,8.19,71900.5,-8.59,-9.45,-9.45,0,*5B
1521262910.78,14040,8.19,71904.0,-8.59,-9.45,-9.45,0,*55
1521262912.03,14041,8.19,71908.8,-8.59,-9.45,-9.45,0,*54
1521262913.28,14042,8.19,71902.3,-8.59,-9.41,-9.41,0,*57
1521262914.53,14043,8.19,71904.8,-8.59,-9.41,-9.37,0,*57
1521262915.78,14044,8.19,71908.8,-8.55,-9.41,-9.45,0,*59
1521262917.02,14045,8.19,71908.8,-8.59,-9.41,-9.45,0,*54
1521262918.27,14046,8.19,71906.5,-8.59,-9.45,-9.45,0,*53
1521262919.52,14047,8.19,71904.0,-8.55,-9.41,-9.45,0,*5A
1521262920.77,14048,8.19,71906.0,-8.59,-9.41,-9.45,0,*59
1521262922.02,14049,8.19,71904.3,-8.59,-9.41,-9.45,0,*58
1521262923.27,14050,8.19,71904.8,-8.59,-9.41,-9.45,0,*50
1521262924.51,14051,8.19,71908.8,-8.59,-9.41,-9.41,0,*55
1521262925.76,14052,8.19,71908.3,-8.59,-9.41,-9.45,0,*52
1521262927.01,14053,8.19,71908.3,-8.59,-9.41,-9.45,0,*53
1521262928.29,14054,8.19,71904.5,-8.51,-9.41,-9.41,0,*58
1521262929.53,14055,8.19,71906.0,-8.55,-9.45,-9.45,0,*5D
1521262930.81,14056,8.19,71908.5,-8.51,-9.41,-9.41,0,*5A
1521262932.06,14057,8.19,71908.3,-8.55,-9.45,-9.45,0,*5F
1521262933.31,14058,8.19,71910.5,-8.55,-9.45,-9.45,0,*50
1521262934.56,14059,8.13,71902.0,-8.55,-9.45,-9.45,0,*51
1521262935.81,14060,8.13,71906.3,-8.55,-9.41,-9.45,0,*5F
1521262937.06,14061,8.13,71910.3,-8.55,-9.45,-9.45,0,*5A
1521262938.31,14062,8.19,71912.3,-8.55,-9.45,-9.45,0,*59
1521262939.59,14063,8.19,71914.0,-8.51,-9.41,-9.37,0,*5D
1521262940.83,14064,8.19,71916.3,-8.55,-9.45,-9.45,0,*5F
1521262942.08,14065,8.19,71924.5,-8.55,-9.45,-9.45,0,*5E
1521262943.33,14066,8.19,71936.5,-8.55,-9.45,-9.45,0,*5D
1521262944.58,14067,8.19,71934.0,-8.55,-9.41,-9.45,0,*58
1521262945.83,14068,8.19,71930.8,-8.55,-9.41,-9.41,0,*53
1521262947.08,14069,8.19,71934.3,-8.55,-9.41,-9.41,0,*52
1521262948.33,14070,8.19,71924.5,-8.55,-9.41,-9.41,0,*5A
1521262949.58,14071,8.19,71922.0,-8.55,-9.41,-9.41,0,*5B
1521262950.83,14072,8.19,71912.5,-8.55,-9.37,-9.41,0,*59
1521262952.08,14073,8.19,71912.5,-8.55,-9.41,-9.41,0,*59
1521262953.36,14074,8.19,71912.8,-8.51,-9.37,-9.37,0,*5A
1521262954.64,14075,8.19,71914.5,-8.51,-9.37,-9.37,0,*5B
1521262955.92,14076,8.19,71912.8,-8.51,-9.37,-9.37,0,*58
1521262957.2,14077,8.19,71916.3,-8.51,-9.37,-9.37,0,*59
1521262958.48,14078,8.19,71924.8,-8.51,-9.37,-9.37,0,*56
1521262959.73,14079,8.19,71912.3,-8.55,-9.41,-9.41,0,*53
1521262961.01,14080,8.13,71908.8,-8.51,-9.41,-9.37,0,*50
1521262962.26,14081,8.19,71918.0,-8.55,-9.45,-9.41,0,*50
1521262963.54,14082,8.19,71922.0,-8.51,-9.41,-9.37,0,*52
1521262964.79,14083,8.13,71920.0,-8.55,-9.45,-9.41,0,*52
1521262966.07,14084,8.19,71928.3,-8.51,-9.41,-9.37,0,*54
1521262967.35,14085,8.19,71930.0,-8.51,-9.37,-9.37,0,*54
1521262968.59,14086,8.19,71932.8,-8.51,-9.37,-9.31,0,*51
1521262969.87,14087,8.19,71924.5,-8.51,-9.37,-9.37,0,*56
1521262971.07,14088,8.19,71918.8,-8.49,-9.31,-9.31,0,*50
1521262972.35,14089,8.19,71916.8,-8.51,-9.37,-9.37,0,*58
1521262973.63,14090,8.19,71914.3,-8.51,-9.37,-9.37,0,*50
1521262974.91,14091,8.19,71924.0,-8.51,-9.41,-9.37,0,*50
1521262976.19,14092,8.19,71926.8,-8.51,-9.41,-9.37,0,*53
1521262977.38,14093,8.19,71922.0,-8.49,-9.31,-9.31,0,*5A
1521262978.6,14094,8.19,71920.3,-8.47,-9.31,-9.31,0,*53
1521262979.8,14095,8.19,71922.0,-8.49,-9.31,-9.31,0,*5C
1521262980.99,14096,8.13,71920.8,-8.49,-9.27,-9.31,0,*58
1521262982.18,14097,8.19,71908.3,-8.49,-9.31,-9.31,0,*5E
1521262983.4,14098,8.19,71906.0,-8.47,-9.31,-9.31,0,*5F
1521262984.6,14099,8.19,71914.8,-8.49,-9.31,-9.31,0,*50
1521262985.83,14100,8.19,71914.5,-8.49,-9.31,-9.37,0,*57
1521262987.05,14101,8.13,71908.5,-8.49,-9.31,-9.37,0,*56
1521262988.31,14102,8.19,71902.8,-8.49,-9.37,-9.37,0,*53
1521262989.5,14103,8.13,71902.5,-8.49,-9.31,-9.31,0,*52
1521262990.69,14104,8.19,71906.8,-8.49,-9.31,-9.31,0,*55
1521262991.89,14105,8.19,71900.5,-8.49,-9.31,-9.31,0,*54
1521262993.11,14106,8.19,71900.3,-8.47,-9.31,-9.31,0,*59
1521262994.33,14107,8.19,71906.3,-8.49,-9.37,-9.31,0,*50
1521262995.52,14108,8.19,71908.5,-8.49,-9.31,-9.31,0,*59
1521262996.71,14109,8.19,71910.5,-8.49,-9.31,-9.31,0,*58
1521262997.91,14110,8.19,71918.0,-8.49,-9.31,-9.31,0,*50
1521262999.13,14111,8.19,71922.3,-8.47,-9.31,-9.31,0,*5F
1521263000.38,14112,8.19,71930.8,-8.47,-9.37,-9.31,0,*5A
1521263001.62,14113,8.19,71918.5,-8.47,-9.37,-9.31,0,*5B
1521263002.84,14114,8.13,71918.5,-8.49,-9.37,-9.31,0,*52
1521263004.07,14115,8.19,71914.0,-8.49,-9.37,-9.31,0,*53
1521263005.29,14116,8.19,71912.3,-8.47,-9.31,-9.31,0,*58
1521263006.53,14117,8.19,71922.5,-8.47,-9.37,-9.31,0,*5F
1521263007.78,14118,8.19,71926.8,-8.47,-9.37,-9.31,0,*50
1521263009.0,14119,8.19,71920.5,-8.47,-9.31,-9.31,0,*57
1521263010.19,14120,8.19,71906.8,-8.49,-9.31,-9.31,0,*53
1521263011.41,14121,8.19,71912.3,-8.47,-9.31,-9.31,0,*5C
1521263012.63,14122,8.19,71922.8,-8.47,-9.31,-9.31,0,*5F
1521263013.85,14123,8.19,71908.5,-8.47,-9.31,-9.31,0,*5E
1521263015.07,14124,8.13,71916.5,-8.47,-9.31,-9.31,0,*59
1521263016.29,14125,8.19,71910.0,-8.47,-9.31,-9.31,0,*58
1521263017.51,14126,8.19,71902.0,-8.47,-9.31,-9.31,0,*5B
1521263018.73,14127,8.19,71910.0,-8.47,-9.31,-9.31,0,*5A
1521263019.95,14128,8.19,71920.0,-8.47,-9.31,-9.31,0,*55
1521263021.17,14129,8.19,71904.3,-8.47,-9.31,-9.31,0,*54
1521263022.39,14130,8.13,71902.3,-8.47,-9.31,-9.31,0,*5C
1521263023.61,14131,8.19,71916.0,-8.47,-9.31,-9.31,0,*5D
1521263024.82,14132,8.19,71908.0,-8.45,-9.27,-9.27,0,*5C
1521263026.03,14133,8.13,71896.8,-8.45,-9.27,-9.27,0,*5D
1521263027.25,14134,8.19,71894.5,-8.43,-9.27,-9.27,0,*5C
1521263028.45,14135,8.19,71892.5,-8.45,-9.27,-9.27,0,*5B
1521263029.66,14136,8.19,71892.5,-8.45,-9.27,-9.23,0,*5C
1521263030.88,14137,8.13,71888.8,-8.43,-9.27,-9.27,0,*5F
1521263032.09,14138,8.19,71900.8,-8.45,-9.27,-9.27,0,*56
1521263033.29,14139,8.19,71902.3,-8.45,-9.27,-9.27,0,*57
1521263034.5,14140,8.19,71906.3,-8.45,-9.27,-9.27,0,*59
1521263035.72,14141,8.13,71896.8,-8.43,-9.27,-9.27,0,*5E
1521263036.93,14142,8.19,71908.0,-8.45,-9.27,-9.27,0,*5B
1521263038.13,14143,8.19,71908.5,-8.45,-9.27,-9.27,0,*5A
1521263039.34,14144,8.19,71914.3,-8.45,-9.27,-9.27,0,*5D
1521263040.54,14145,8.13,71920.3,-8.45,-9.27,-9.23,0,*58
1521263041.77,14146,8.13,71928.8,-8.43,-9.27,-9.27,0,*59
1521263042.99,14147,8.13,71938.8,-8.43,-9.27,-9.27,0,*58
1521263044.21,14148,8.19,71932.0,-8.43,-9.27,-9.27,0,*57
1521263045.43,14149,8.19,71926.5,-8.43,-9.27,-9.27,0,*56
1521263046.64,14150,8.19,71924.3,-8.45,-9.27,-9.27,0,*58
1521263047.86,14151,8.19,71902.8,-8.43,-9.27,-9.27,0,*5F
1521263049.09,14152,8.19,71910.5,-8.43,-9.27,-9.27,0,*5C
1521263050.29,14153,8.19,71918.8,-8.45,-9.27,-9.27,0,*5B
1521263051.5,14154,8.19,71924.8,-8.45,-9.27,-9.27,0,*5C
1521263052.72,14155,8.13,71920.8,-8.43,-9.27,-9.27,0,*5B
1521263053.94,14156,8.19,71918.8,-8.43,-9.27,-9.27,0,*58
1521263055.16,14157,8.13,71914.5,-8.43,-9.27,-9.27,0,*59
1521263056.39,14158,8.19,71924.8,-8.43,-9.27,-9.27,0,*56
1521263057.61,14159,8.19,71914.5,-8.43,-9.27,-9.27,0,*57
1521263058.83,14160,8.19,71910.8,-8.43,-9.27,-9.27,0,*5D
1521263060.04,14161,8.13,71908.5,-8.45,-9.27,-9.27,0,*5A
1521263061.26,14162,8.19,71904.3,-8.43,-9.27,-9.27,0,*5F
1521263062.48,14163,8.13,71906.0,-8.43,-9.27,-9.27,0,*5E
1521263063.71,14164,8.19,71908.3,-8.43,-9.27,-9.27,0,*59
1521263064.93,14165,8.13,71910.5,-8.43,-9.23,-9.27,0,*5C
1521263066.13,14166,8.19,71912.0,-8.41,-9.19,-9.19,0,*59
1521263067.32,14167,8.19,71914.5,-8.41,-9.23,-9.23,0,*58
1521263068.54,14168,8.19,71922.3,-8.39,-9.23,-9.23,0,*58
1521263069.74,14169,8.19,71914.0,-8.41,-9.23,-9.23,0,*56
1521263070.94,14170,8.19,71914.3,-8.41,-9.23,-9.23,0,*5E
1521263072.16,14171,8.19,71920.8,-8.39,-9.23,-9.19,0,*59
1521263073.35,14172,8.19,71936.3,-8.41,-9.23,-9.23,0,*5C
1521263074.57,14173,8.13,71912.3,-8.39,-9.19,-9.23,0,*5B
1521263075.77,14174,8.19,71916.8,-8.41,-9.23,-9.23,0,*5A
1521263076.99,14175,8.13,71918.5,-8.39,-9.23,-9.23,0,*54
1521263078.19,14176,8.13,71926.0,-8.41,-9.23,-9.23,0,*58
1521263079.38,14177,8.13,71926.8,-8.41,-9.23,-9.23,0,*59
1521263080.6,14178,8.13,71926.8,-8.39,-9.23,-9.23,0,*59
1521263081.82,14179,8.13,71924.3,-8.39,-9.23,-9.23,0,*58
1521263083.05,14180,8.13,71926.0,-8.39,-9.23,-9.19,0,*57
1521263084.24,14181,8.19,71926.0,-8.41,-9.23,-9.23,0,*50
1521263085.46,14182,8.19,71922.0,-8.39,-9.23,-9.23,0,*5C
1521263086.66,14183,8.19,71930.5,-8.41,-9.23,-9.23,0,*52
1521263087.88,14184,8.13,71926.5,-8.39,-9.23,-9.23,0,*5A
1521263089.07,14185,8.19,71924.5,-8.41,-9.23,-9.23,0,*54
1521263090.3,14186,8.13,71924.3,-8.39,-9.23,-9.23,0,*58
1521263091.52,14187,8.19,71932.5,-8.39,-9.23,-9.23,0,*59
1521263092.74,14188,8.13,71922.0,-8.39,-9.23,-9.23,0,*56
1521263093.93,14189,8.13,71920.8,-8.41,-9.23,-9.23,0,*58
1521263095.15,14190,8.19,71928.8,-8.39,-9.23,-9.23,0,*5F
1521263096.37,14191,8.13,71930.5,-8.39,-9.23,-9.23,0,*5E
1521263097.59,14192,8.19,71918.5,-8.39,-9.23,-9.19,0,*54
1521263098.81,14193,8.19,71928.0,-8.39,-9.23,-9.23,0,*5C
1521263100.03,14194,8.19,71932.0,-8.39,-9.23,-9.23,0,*5B
1521263101.25,14195,8.13,71930.5,-8.39,-9.23,-9.23,0,*5A
1521263102.45,14196,8.19,71936.5,-8.37,-9.19,-9.19,0,*57
1521263103.65,14197,8.13,71934.8,-8.37,-9.19,-9.19,0,*56
1521263104.87,14198,8.19,71934.5,-8.35,-9.19,-9.19,0,*5B
1521263106.07,14199,8.19,71932.8,-8.37,-9.19,-9.19,0,*58
1521263107.27,14200,8.19,71918.3,-8.37,-9.23,-9.19,0,*52
1521263108.47,14201,8.19,71916.3,-8.37,-9.19,-9.19,0,*5A
1521263109.66,14202,8.19,71914.3,-8.37,-9.19,-9.19,0,*59
1521263110.86,14203,8.19,71906.0,-8.37,-9.19,-9.19,0,*58
1521263112.08,14204,8.19,71912.3,-8.39,-9.23,-9.23,0,*51
1521263113.28,14205,8.19,71912.8,-8.37,-9.19,-9.19,0,*5E
1521263114.48,14206,8.19,71906.0,-8.37,-9.19,-9.19,0,*5D
1521263115.7,14207,8.13,71908.0,-8.39,-9.23,-9.23,0,*52
1521263116.92,14208,8.19,71916.8,-8.35,-9.23,-9.19,0,*58
1521263118.12,14209,8.19,71920.5,-8.37,-9.23,-9.19,0,*5B
1521263119.34,14210,8.13,71922.0,-8.35,-9.23,-9.19,0,*51
1521263120.54,14211,8.19,71922.0,-8.37,-9.23,-9.19,0,*52
1521263121.74,14212,8.19,71920.5,-8.37,-9.23,-9.19,0,*51
1521263122.93,14213,8.19,71922.8,-8.37,-9.23,-9.19,0,*50
1521263124.16,14214,8.19,71922.5,-8.35,-9.23,-9.23,0,*5C
1521263125.38,14215,8.19,71928.0,-8.35,-9.23,-9.23,0,*5D
1521263126.6,14216,8.13,71922.0,-8.35,-9.23,-9.23,0,*5E
1521263127.82,14217,8.19,71920.8,-8.35,-9.23,-9.23,0,*5F
1521263129.02,14218,8.13,71910.0,-8.37,-9.23,-9.23,0,*52
1521263130.24,14219,8.19,71918.0,-8.35,-9.23,-9.31,0,*52
1521263131.44,14220,8.19,71902.5,-8.37,-9.23,-9.23,0,*59
1521263132.66,14221,8.19,71918.3,-8.35,-9.31,-9.19,0,*50
1521263133.88,14222,8.19,71914.0,-8.35,-9.23,-9.19,0,*50
1521263135.11,14223,8.13,71916.3,-8.35,-9.23,-9.19,0,*51
1521263136.33,14224,8.19,71910.8,-8.35,-9.23,-9.23,0,*5F
1521263137.55,14225,8.13,71922.5,-8.35,-9.23,-9.23,0,*5E
1521263138.75,14226,8.13,71916.5,-8.33,-9.19,-9.19,0,*5B
1521263139.97,14227,8.19,71918.3,-8.35,-9.23,-9.19,0,*55
1521263141.19,14228,8.19,71914.8,-8.35,-9.23,-9.23,0,*53
1521263142.42,14229,8.19,71910.8,-8.35,-9.23,-9.23,0,*52
1521263143.61,14230,8.19,71910.5,-8.33,-9.19,-9.19,0,*5C
1521263144.81,14231,8.13,71906.3,-8.33,-9.19,-9.19,0,*5D
1521263146.01,14232,8.19,71912.8,-8.33,-9.19,-9.19,0,*5E
1521263147.23,14233,8.19,71912.5,-8.35,-9.23,-9.23,0,*59
1521263148.46,14234,8.19,71902.0,-8.35,-9.23,-9.23,0,*5E
1521263149.65,14235,8.13,71904.8,-8.33,-9.19,-9.19,0,*59
1521263150.85,14236,8.13,71904.5,-8.33,-9.19,-9.19,0,*5A
1521263152.08,14237,8.19,71906.3,-8.33,-9.15,-9.19,0,*57
1521263153.31,14238,8.13,71902.3,-8.33,-9.15,-9.19,0,*58
1521263154.51,14239,8.13,71900.5,-8.33,-9.19,-9.19,0,*55
1521263155.7,14240,8.13,71902.0,-8.33,-9.19,-9.19,0,*5B
1521263156.9,14241,8.13,71900.8,-8.29,-9.19,-9.19,0,*51
1521263158.1,14242,8.13,71904.5,-8.33,-9.19,-9.19,0,*59
1521263159.3,14243,8.13,71910.5,-8.29,-9.19,-9.19,0,*53
1521263160.5,14244,8.19,71916.3,-8.33,-9.19,-9.19,0,*5F
1521263161.7,14245,8.13,71906.3,-8.29,-9.19,-9.19,0,*55
1521263162.92,14246,8.19,71918.3,-8.33,-9.19,-9.15,0,*51
1521263164.15,14247,8.13,71910.8,-8.29,-9.19,-9.15,0,*5B
1521263165.37,14248,8.13,71908.8,-8.33,-9.19,-9.15,0,*5F
1521263166.57,14249,8.13,71904.5,-8.29,-9.27,-9.19,0,*54
1521263167.77,14250,8.13,71910.8,-8.33,-9.19,-9.19,0,*5A
1521263168.97,14251,8.13,71912.0,-8.29,-9.19,-9.19,0,*50
1521263170.17,14252,8.19,71908.3,-8.29,-9.19,-9.19,0,*53
1521263171.37,14253,8.13,71904.0,-8.29,-9.19,-9.19,0,*52
1521263172.57,14254,8.13,71890.0,-8.29,-9.27,-9.19,0,*58
1521263173.77,14255,8.13,71904.5,-8.29,-9.19,-9.19,0,*54
1521263174.97,14256,8.13,71906.3,-8.29,-9.19,-9.19,0,*57
1521263176.18,14257,8.13,71908.3,-8.29,-9.19,-9.19,0,*56
1521263177.37,14258,8.13,71900.3,-8.33,-9.19,-9.19,0,*52
1521263178.57,14259,8.13,71908.0,-8.29,-9.19,-9.19,0,*58
1521263179.77,14260,8.13,71898.3,-8.29,-9.19,-9.19,0,*52
1521263180.97,14261,8.19,71914.3,-8.29,-9.19,-9.19,0,*53
1521263182.17,14262,8.13,71912.8,-8.29,-9.19,-9.19,0,*50
1521263183.38,14263,8.19,71906.5,-8.29,-9.19,-9.19,0,*51
1521263184.58,14264,8.19,71912.0,-8.29,-9.19,-9.19,0,*56
1521263185.77,14265,8.13,71908.8,-8.33,-9.27,-9.19,0,*51
1521263186.97,14266,8.19,71902.8,-8.29,-9.19,-9.19,0,*54
1521263188.17,14267,8.13,71902.0,-8.33,-9.19,-9.19,0,*5E
1521263189.37,14268,8.13,71908.5,-8.29,-9.19,-9.19,0,*5A
1521263190.57,14269,8.13,71908.8,-8.29,-9.19,-9.19,0,*5B
1521263191.77,14270,8.13,71908.3,-8.29,-9.19,-9.19,0,*53
1521263192.97,14271,8.13,71908.8,-8.29,-9.19,-9.19,0,*52
1521263194.18,14272,8.19,71914.3,-8.29,-9.19,-9.19,0,*51
1521263195.45,14273,8.13,71912.8,-8.27,-9.15,-9.15,0,*5E
1521263196.73,14274,8.13,71910.0,-8.27,-9.15,-9.15,0,*59
1521263197.96,14275,8.19,71910.3,-8.25,-9.15,-9.23,0,*5F
1521263199.2,14276,8.19,71908.8,-8.27,-9.23,-9.15,0,*5E
1521263200.48,14277,8.13,71908.8,-8.27,-9.15,-9.15,0,*5A
1521263201.7,14278,8.13,71910.5,-8.27,-9.23,-9.23,0,*55
1521263202.95,14279,8.19,71918.5,-8.25,-9.15,-9.15,0,*56
1521263204.2,14280,8.19,71920.8,-8.27,-9.15,-9.23,0,*57
1521263205.43,14281,8.13,71920.3,-8.25,-9.23,-9.15,0,*54
1521263206.68,14282,8.19,71924.0,-8.27,-9.15,-9.23,0,*55
1521263207.93,14283,8.13,71920.3,-8.27,-9.15,-9.23,0,*54
1521263209.18,14284,8.13,71922.3,-8.25,-9.15,-9.15,0,*54
1521263210.43,14285,8.13,71922.5,-8.25,-9.15,-9.15,0,*55
1521263211.71,14286,8.13,71914.8,-8.27,-9.15,-9.15,0,*54
1521263212.96,14287,8.19,71920.3,-8.27,-9.23,-9.15,0,*50
1521263214.21,14288,8.13,71914.0,-8.25,-9.15,-9.15,0,*58
1521263215.44,14289,8.13,71918.0,-8.25,-9.15,-9.23,0,*5C
1521263216.68,14290,8.13,71904.5,-8.27,-9.23,-9.15,0,*56
1521263217.93,14291,8.13,71910.5,-8.27,-9.23,-9.15,0,*57
1521263219.21,14292,8.13,71912.3,-8.27,-9.15,-9.15,0,*51
1521263220.43,14293,8.19,71914.8,-8.25,-9.15,-9.23,0,*57
1521263221.71,14294,8.13,71912.3,-8.27,-9.15,-9.15,0,*57
1521263222.96,14295,8.19,71902.0,-8.25,-9.15,-9.15,0,*54
1521263224.19,14296,8.19,71894.3,-8.25,-9.15,-9.23,0,*52
1521263225.47,14297,8.13,71902.3,-8.27,-9.15,-9.15,0,*54
1521263226.69,14298,8.13,71892.3,-8.27,-9.23,-9.23,0,*5B
1521263227.88,14299,8.19,71888.0,-8.25,-9.23,-9.23,0,*58
1521263229.11,14300,8.13,71904.0,-8.25,-9.23,-9.15,0,*5C
1521263230.38,14301,8.13,71882.5,-8.27,-9.15,-9.15,0,*5A
1521263231.58,14302,8.13,71894.8,-8.25,-9.23,-9.23,0,*5B
1521263232.83,14303,8.13,71898.0,-8.25,-9.15,-9.15,0,*5A
1521263234.09,14304,8.13,71888.3,-8.25,-9.15,-9.15,0,*5D
1521263235.37,14305,8.19,71886.8,-8.23,-9.11,-9.11,0,*5A
1521263236.65,14306,8.13,71888.3,-8.23,-9.11,-9.11,0,*59
1521263237.9,14307,8.13,71888.0,-8.25,-9.15,-9.15,0,*5E
1521263239.15,14308,8.19,71902.5,-8.27,-9.23,-9.15,0,*56
1521263240.37,14309,8.19,71900.3,-8.25,-9.23,-9.15,0,*55
1521263241.59,14310,8.13,71900.3,-8.25,-9.23,-9.15,0,*5D
1521263242.85,14311,8.13,71900.5,-8.25,-9.15,-9.15,0,*59
1521263244.1,14312,8.13,71906.5,-8.25,-9.15,-9.15,0,*5A
1521263245.35,14313,8.13,71896.8,-8.25,-9.15,-9.15,0,*5B
1521263246.61,14314,8.13,71898.3,-8.25,-9.15,-9.15,0,*5C
1521263247.86,14315,8.13,71880.8,-8.25,-9.15,-9.15,0,*5D
1521263249.08,14316,8.13,71898.5,-8.25,-9.23,-9.15,0,*5B
1521263250.34,14317,8.13,71898.0,-8.25,-9.15,-9.15,0,*5F
1521263251.59,14318,8.13,71888.8,-8.25,-9.15,-9.15,0,*50
1521263252.81,14319,8.13,71898.5,-8.25,-9.23,-9.15,0,*54
1521263254.07,14320,8.13,71894.3,-8.25,-9.15,-9.15,0,*5B
1521263255.29,14321,8.13,71904.0,-8.25,-9.15,-9.23,0,*5F
1521263256.55,14322,8.13,71908.5,-8.25,-9.15,-9.15,0,*59
1521263257.83,14323,8.13,71908.0,-8.23,-9.11,-9.11,0,*5E
1521263259.05,14324,8.13,71908.8,-8.23,-9.19,-9.19,0,*59
1521263260.27,14325,8.13,71916.5,-8.23,-9.19,-9.19,0,*58
1521263261.53,14326,8.13,71920.5,-8.23,-9.11,-9.19,0,*53
1521263262.79,14327,8.13,71918.8,-8.21,-9.11,-9.11,0,*58
1521263264.04,14328,8.13,71916.8,-8.23,-9.19,-9.11,0,*5D
1521263265.29,14329,8.13,71920.0,-8.23,-9.11,-9.19,0,*5C
1521263266.55,14330,8.13,71914.8,-8.21,-9.11,-9.11,0,*5E
1521263267.8,14331,8.13,71914.8,-8.23,-9.11,-9.19,0,*55
1521263269.08,14332,8.13,71892.5,-8.23,-9.11,-9.11,0,*5E
1521263270.36,14333,8.13,71904.8,-8.23,-9.11,-9.11,0,*5F
1521263271.64,14334,8.13,71894.3,-8.23,-9.11,-9.11,0,*58
1521263272.92,14335,8.13,71900.3,-8.23,-9.11,-9.11,0,*59
1521263274.18,14336,8.13,71902.8,-8.21,-9.11,-9.11,0,*58
1521263275.41,14337,8.13,71908.3,-8.23,-9.19,-9.19,0,*5B
1521263276.64,14338,8.19,71900.3,-8.21,-9.11,-9.19,0,*5E
1521263277.83,14339,8.13,71898.3,-8.21,-9.19,-9.31,0,*5D
1521263279.03,14340,8.13,71898.3,-8.21,-9.19,-9.23,0,*50
1521263280.26,14341,8.19,71898.0,-8.23,-9.19,-9.19,0,*5A
1521263281.46,14342,8.13,71902.0,-8.21,-9.23,-9.19,0,*52
1521263282.65,14343,8.13,71896.5,-8.21,-9.23,-9.19,0,*53
1521263283.85,14344,8.19,71904.8,-8.21,-9.19,-9.19,0,*5D
1521263285.08,14345,8.19,71892.0,-8.23,-9.23,-9.19,0,*57
1521263286.28,14346,8.13,71898.8,-8.21,-9.19,-9.19,0,*5F
1521263287.5,14347,8.13,71896.0,-8.23,-9.19,-9.19,0,*5C
1521263288.73,14348,8.19,71886.5,-8.21,-9.11,-9.19,0,*59
1521263290.01,14349,8.13,71886.8,-8.23,-9.11,-9.11,0,*52
1521263291.27,14350,8.13,71884.5,-8.21,-9.11,-9.11,0,*58
1521263292.52,14351,8.19,71890.3,-8.23,-9.19,-9.11,0,*53
1521263293.78,14352,8.13,71882.5,-8.23,-9.11,-9.19,0,*50
1521263295.03,14353,8.13,71884.3,-8.23,-9.11,-9.19,0,*51
1521263296.23,14354,8.19,71886.5,-8.21,-9.19,-9.19,0,*5C
1521263297.51,14355,8.13,71882.5,-8.23,-9.11,-9.11,0,*5F
1521263298.76,14356,8.13,71878.5,-8.23,-9.19,-9.11,0,*54
1521263299.96,14357,8.13,71880.3,-8.21,-9.19,-9.19,0,*5F
1521263301.24,14358,8.13,71890.3,-8.23,-9.11,-9.11,0,*52
1521263302.47,14359,8.13,71884.0,-8.21,-9.11,-9.19,0,*59
1521263303.73,14360,8.13,71888.5,-8.21,-9.11,-9.11,0,*5B
1521263304.96,14361,8.13,71900.3,-8.21,-9.19,-9.11,0,*52
1521263306.22,14362,8.13,71892.5,-8.21,-9.11,-9.11,0,*59
1521263307.45,14363,8.13,71900.8,-8.21,-9.11,-9.19,0,*50
1521263308.65,14364,8.13,71896.5,-8.21,-9.19,-9.19,0,*5F
1521263309.87,14365,8.13,71896.0,-8.21,-9.11,-9.19,0,*56
1521263311.07,14366,8.13,71888.3,-8.21,-9.23,-9.19,0,*54
1521263312.27,14367,8.13,71896.5,-8.21,-9.23,-9.19,0,*55
1521263313.47,14368,8.13,71904.3,-8.21,-9.23,-9.19,0,*5A
1521263314.67,14369,8.13,71898.0,-8.21,-9.31,-9.19,0,*58
1521263315.92,14370,8.13,71904.5,-8.19,-9.19,-9.15,0,*5D
1521263317.17,14371,8.13,71906.3,-8.19,-9.19,-9.15,0,*5C
1521263318.4,14372,8.13,71906.0,-8.21,-9.11,-9.19,0,*50
1521263319.63,14373,8.13,71900.8,-8.21,-9.19,-9.11,0,*51